Wray Municipal Airport, CO

1:26 PM MDT on July 24, 2017 (GMT -0600)
Wray Municipal Airport

Weather History for K2V5 - February, 2014

Change the Weather History Date:

Wednesday, February 5, 2014

  Actual Average (KSYF) Record (KSYF)
Temperature  
Mean Temperature -6 °F -  
Max Temperature 6 °F 39 °F 62 °F (2015)
Min Temperature -18 °F 15 °F -13 °F (2014)
Degree Days  
Heating Degree Days 71    
Moisture  
Dew Point -12 °F    
Average Humidity 74    
Maximum Humidity 85    
Minimum Humidity 59    
Precipitation  
Precipitation 0.00 in - - ()
Sea Level Pressure  
Sea Level Pressure 30.46 in    
Wind  
Wind Speed 6 mph (WNW)    
Max Wind Speed 10 mph    
Max Gust Speed -    
Visibility 10 miles    
Events Snow    
Averages and records for this station are not official NWS values.
T = Trace of Precipitation, MM = Missing Value Source: NWS Daily Summary

Daily Weather History Graph

Daily Weather History Graph

Search for Another Location

Airport or City:

Trip Planner

Search our weather history database for the weather conditions in past years. The results will help you decide how hot, cold, wet, or windy it might be!

Date:

Astronomy

Feb. 05, 2014 Rise Set
Actual Time 6:53 AM MST 5:12 PM MST
Civil Twilight 6:25 AM MST 5:41 PM MST
Nautical Twilight 5:52 AM MST 6:13 PM MST
Astronomical Twilight 5:21 AM MST 6:45 PM MST
Moon 10:09 AM MST (2/5) No Moon Set
Length of Visible Light 11h 16m
Length of Day
10h 19m
Waxing Crescent, 40% of the Moon is Illuminated
Feb 5
Waxing Crescent
Feb 6
First Quarter
Feb 14
Full
Feb 22
Last Quarter
Mar 1
New

Hourly Weather History & Observations

Time (MST) Temp. Windchill Dew Point Humidity Pressure Visibility Wind Dir Wind Speed Gust Speed Precip Events Conditions
12:15 AM -1.8 °F - -6.7 °F 80% 30.40 in 10.0 mi North - - N/A   Overcast
12:35 AM -2.0 °F -18.7 °F -6.9 °F 80% 30.40 in 10.0 mi NNW 10.4 mph - N/A   Overcast
12:55 AM -1.7 °F - -6.7 °F 79% 30.40 in 10.0 mi North - - N/A   Overcast
1:15 AM -1.7 °F - -6.7 °F 79% 30.41 in 5.0 mi North - - N/A   Haze
1:35 AM -1.8 °F - -6.9 °F 79% 30.41 in 7.0 mi North - - N/A   Overcast
1:55 AM -2.4 °F -18.2 °F -7.6 °F 78% 30.42 in 7.0 mi NNW 9.2 mph - N/A Snow Light Snow
2:15 AM -3.6 °F -18.6 °F -8.5 °F 80% 30.42 in 10.0 mi NNW 8.1 mph - N/A   Overcast
2:35 AM -6.0 °F -21.5 °F -11.0 °F 79% 30.42 in 10.0 mi NW 8.1 mph - N/A   Scattered Clouds
2:55 AM -7.4 °F -23.2 °F -12.1 °F 80% 30.43 in 10.0 mi NW 8.1 mph - N/A   Clear
3:15 AM -9.4 °F -25.6 °F -13.9 °F 81% 30.44 in 10.0 mi NW 8.1 mph - N/A   Clear
3:35 AM -9.2 °F -26.6 °F -13.9 °F 80% 30.43 in 10.0 mi NW 9.2 mph - N/A   Clear
3:55 AM -10.1 °F -26.5 °F -15.0 °F 79% 30.44 in 10.0 mi NW 8.1 mph - N/A   Clear
4:15 AM -9.6 °F -28.1 °F -14.3 °F 80% 30.43 in 10.0 mi NNW 10.4 mph - N/A   Clear
4:35 AM -12.8 °F -29.8 °F -18.2 °F 77% 30.45 in 10.0 mi WNW 8.1 mph - N/A   Clear
4:55 AM -13.9 °F -32.4 °F -18.8 °F 79% 30.45 in 10.0 mi NW 9.2 mph - N/A   Clear
5:15 AM -12.1 °F -31.3 °F -16.4 °F 81% 30.45 in 10.0 mi NW 10.4 mph - N/A   Clear
5:35 AM -12.8 °F -29.8 °F -17.3 °F 80% 30.45 in 10.0 mi NW 8.1 mph - N/A   Clear
5:55 AM -13.0 °F -30.0 °F -17.7 °F 80% 30.45 in 10.0 mi NW 8.1 mph - N/A   Clear
6:15 AM -15.7 °F -30.2 °F -20.2 °F 80% 30.46 in 10.0 mi WNW 5.8 mph - N/A   Clear
6:35 AM -16.6 °F -31.3 °F -21.3 °F 79% 30.47 in 10.0 mi West 5.8 mph - N/A   Clear
6:55 AM -16.4 °F -31.0 °F -21.3 °F 79% 30.47 in 10.0 mi West 5.8 mph - N/A   Clear
7:15 AM -18.2 °F -28.7 °F -23.4 °F 77% 30.47 in 10.0 mi West 3.5 mph - N/A   Clear
7:35 AM -17.0 °F -33.4 °F -21.6 °F 79% 30.48 in 10.0 mi West 6.9 mph - N/A   Clear
7:55 AM -16.8 °F -29.5 °F -22.2 °F 76% 30.50 in 10.0 mi WSW 4.6 mph - N/A   Clear
8:15 AM -13.9 °F -26.1 °F -19.3 °F 77% 30.50 in 10.0 mi West 4.6 mph - N/A   Clear
8:35 AM -11.6 °F -23.4 °F -17.3 °F 76% 30.50 in 10.0 mi West 4.6 mph - N/A   Clear
8:55 AM -10.7 °F -20.0 °F -17.3 °F 72% 30.51 in 10.0 mi SW 3.5 mph - N/A   Clear
9:15 AM -8.1 °F -19.4 °F -15.0 °F 72% 30.52 in 10.0 mi WSW 4.6 mph - N/A   Clear
9:35 AM -6.2 °F -20.4 °F -14.1 °F 69% 30.52 in 10.0 mi SW 6.9 mph - N/A   Clear
9:55 AM -4.4 °F -16.7 °F -12.8 °F 67% 30.52 in 10.0 mi WSW 5.8 mph - N/A   Clear
10:15 AM -2.9 °F -15.0 °F -11.4 °F 67% 30.52 in 10.0 mi SW 5.8 mph - N/A   Clear
10:35 AM -1.1 °F -11.2 °F -10.3 °F 65% 30.52 in 10.0 mi WSW 4.6 mph - N/A   Clear
10:55 AM 0.3 °F - -9.4 °F 64% 30.51 in 10.0 mi Calm Calm - N/A   Clear
11:15 AM 1.2 °F -6.4 °F -8.7 °F 63% 30.50 in 10.0 mi SW 3.5 mph - N/A   Clear
11:35 AM 3.6 °F - -6.9 °F 62% 30.50 in 10.0 mi Calm Calm - N/A   Clear
11:55 AM 4.3 °F -4.9 °F -5.6 °F 64% 30.49 in 10.0 mi North 4.6 mph - N/A   Clear
12:15 PM 4.6 °F -6.0 °F -5.1 °F 64% 30.48 in 10.0 mi NNW 5.8 mph - N/A   Clear
12:35 PM 4.8 °F -4.3 °F -5.3 °F 63% 30.48 in 10.0 mi North 4.6 mph - N/A   Clear
12:55 PM 5.4 °F -1.7 °F -5.1 °F 62% 30.47 in 10.0 mi North 3.5 mph - N/A   Clear
1:15 PM 5.5 °F -1.5 °F -5.4 °F 61% 30.47 in 10.0 mi NNW 3.5 mph - N/A   Scattered Clouds
1:35 PM 5.4 °F - -5.1 °F 62% 30.46 in 10.0 mi Calm Calm - N/A   Mostly Cloudy
1:55 PM 6.4 °F -0.5 °F -4.9 °F 60% 30.45 in 10.0 mi NNW 3.5 mph - N/A   Overcast
2:15 PM 5.5 °F -1.5 °F -5.6 °F 60% 30.45 in 10.0 mi North 3.5 mph - N/A   Mostly Cloudy
2:35 PM 5.5 °F -1.5 °F -5.8 °F 60% 30.45 in 10.0 mi NNW 3.5 mph - N/A   Scattered Clouds
2:55 PM 5.7 °F -1.3 °F -6.0 °F 59% 30.45 in 10.0 mi North 3.5 mph - N/A   Clear
3:15 PM 5.5 °F -1.5 °F -5.6 °F 60% 30.45 in 10.0 mi NNW 3.5 mph - N/A   Clear
3:35 PM 5.2 °F -3.8 °F -6.0 °F 60% 30.45 in 10.0 mi North 4.6 mph - N/A   Clear
3:55 PM 4.5 °F -6.3 °F -6.3 °F 61% 30.45 in 10.0 mi NNW 5.8 mph - N/A   Clear
4:15 PM 3.7 °F -3.6 °F -6.7 °F 62% 30.45 in 10.0 mi NNW 3.5 mph - N/A   Clear
4:35 PM 2.1 °F - -7.6 °F 64% 30.45 in 10.0 mi Calm Calm - N/A   Clear
4:55 PM 0.9 °F - -7.8 °F 67% 30.45 in 10.0 mi Calm Calm - N/A   Clear
5:15 PM -0.4 °F - -7.6 °F 72% 30.45 in 10.0 mi Calm Calm - N/A   Clear
5:35 PM -1.3 °F - -7.6 °F 75% 30.46 in 10.0 mi Calm Calm - N/A   Clear
5:55 PM -1.5 °F - -7.4 °F 76% 30.46 in 10.0 mi Calm Calm - N/A   Clear
6:15 PM -5.8 °F - -9.9 °F 82% 30.46 in 10.0 mi Calm Calm - N/A   Clear
6:35 PM -6.0 °F -14.7 °F -10.3 °F 82% 30.46 in 10.0 mi WSW 3.5 mph - N/A   Clear
6:55 PM -7.1 °F -15.9 °F -11.0 °F 83% 30.46 in 10.0 mi WSW 3.5 mph - N/A   Scattered Clouds
7:15 PM -8.3 °F -17.3 °F -12.3 °F 83% 30.45 in 10.0 mi WSW 3.5 mph - N/A   Scattered Clouds
7:35 PM -8.0 °F -19.2 °F -12.3 °F 81% 30.45 in 10.0 mi WSW 4.6 mph - N/A   Clear
7:55 PM -9.6 °F -18.8 °F -13.5 °F 83% 30.45 in 10.0 mi West 3.5 mph - N/A   Clear
8:15 PM -11.6 °F -23.4 °F -15.0 °F 85% 30.45 in 10.0 mi WSW 4.6 mph - N/A   Clear
8:35 PM -10.8 °F -20.2 °F -14.8 °F 83% 30.45 in 10.0 mi West 3.5 mph - N/A   Scattered Clouds
8:55 PM -12.3 °F - -16.1 °F 83% 30.45 in 10.0 mi Calm Calm - N/A   Scattered Clouds
9:15 PM -13.0 °F -25.1 °F -16.8 °F 83% 30.44 in 10.0 mi WSW 4.6 mph - N/A   Mostly Cloudy
9:35 PM -12.1 °F -21.7 °F -16.4 °F 81% 30.44 in 10.0 mi SW 3.5 mph - N/A   Overcast
9:55 PM -11.2 °F - -15.7 °F 80% 30.43 in 10.0 mi Calm Calm - N/A   Overcast
10:15 PM -9.6 °F - -13.9 °F 81% 30.42 in 10.0 mi Calm Calm - N/A   Overcast
10:35 PM -8.7 °F - -13.4 °F 80% 30.42 in 10.0 mi Calm Calm - N/A   Overcast
10:55 PM -8.5 °F -19.8 °F -12.8 °F 81% 30.42 in 10.0 mi WSW 4.6 mph - N/A   Overcast
11:15 PM -7.1 °F -15.9 °F -11.4 °F 81% 30.42 in 10.0 mi WSW 3.5 mph - N/A   Overcast
11:35 PM -5.8 °F - -10.3 °F 81% 30.41 in 10.0 mi Calm Calm - N/A   Overcast
11:55 PM -5.4 °F - -9.8 °F 82% 30.41 in 10.0 mi Calm Calm - N/A   Overcast